Retour au catalogue

IRIDIUM 33 DEB

ActifPO
NORAD 34529·DEBRIS·🇺🇸 United States

Lancé Sep 14, 1997 depuis Baikonur Cosmodrome

Loading…

Prochains Passages (prochaines 24 heures)

TLE

FraisSource: Space-Track

Époque: Sep 13, 2026, 12:22 UTC

1 34529U 97051HW  26256.51560456  .00000370  00000-0  10911-3 0  9993
2 34529  86.3583 278.2573 0005914  40.2282 319.9355 14.40931361920984

Suivez IRIDIUM 33 DEB en temps réel avec AllMySat

Download on the App Store